Location: Newark
(44.3867°N, 6.6531°E)
Time: 21:01:20
(UTC+00:00)

Envisat - Pass Details

Date: 02 February 2020
Orbit: 764 x 766 km, 98.1° (Epoch: 25 February)

Event Time Altitude Azimuth Distance (km) Brightness Sun altitude
Rises 17:30:03 0° 172° (S) 3,219 6.3 -8.7°
Reaches altitude 10° 17:32:21 10° 175° (S) 2,297 5.6 -9.1°
Maximum altitude 17:37:23 68° 258° (WSW) 825 3.4 -10.0°
Drops below altitude 10° 17:42:28 10° 342° (NNW) 2,313 5.6 -10.9°
Sets 17:44:49 0° 345° (NNW) 3,243 6.3 -11.3°
